1520092800.36,50377,10.38,71196.3,-12.73,-46.69,-46.69,0,*61
1520092801.62,50378,10.38,71200.8,-12.73,-46.69,-46.69,0,*6E
1520092802.89,50379,10.38,71212.3,-12.69,-46.49,-46.49,0,*64
1520092804.13,50380,10.38,71212.8,-12.73,-45.95,-46.15,0,*62
1520092805.37,50381,10.38,71198.0,-12.73,-46.07,-45.87,0,*63
1520092806.59,50382,10.38,71196.8,-12.69,-46.21,-46.21,0,*60
1520092807.83,50383,10.38,71200.8,-12.73,-46.49,-46.35,0,*61
1520092809.05,50384,10.38,71204.3,-12.73,-46.55,-46.55,0,*6D
1520092810.29,50385,10.38,71204.3,-12.73,-46.49,-46.35,0,*67
1520092811.5,50386,10.38,71212.8,-12.73,-46.55,-46.55,0,*6F
1520092812.77,50387,10.38,71222.8,-12.73,-46.27,-46.27,0,*6E
1520092814.0,50388,10.38,71210.8,-12.73,-45.87,-45.73,0,*6A
1520092815.21,50389,10.38,71202.0,-12.73,-45.67,-45.61,0,*66
1520092816.45,50390,10.38,71172.8,-12.73,-45.61,-45.73,0,*6B
1520092817.66,50391,10.38,71182.3,-12.69,-45.87,-46.01,0,*6F
1520092818.91,50392,10.38,71190.5,-12.69,-46.07,-46.01,0,*67
1520092820.19,50393,10.38,71162.8,-12.73,-46.27,-46.15,0,*6A
1520092821.45,50394,10.38,71146.3,-12.69,-46.41,-46.27,0,*67
1520092822.67,50395,10.38,71152.0,-12.69,-45.61,-45.61,0,*66
1520092823.9,50396,10.38,71202.3,-12.73,-45.73,-45.21,0,*69
1520092825.12,50397,10.38,71206.5,-12.69,-45.53,-45.87,0,*6D
1520092826.34,50398,10.38,71192.5,-12.69,-46.01,-46.01,0,*6B
1520092827.61,50399,10.38,71190.3,-12.73,-46.07,-46.15,0,*62
1520092828.88,50400,10.38,71188.5,-12.73,-46.15,-46.07,0,*65
1520092830.12,50401,10.38,71210.8,-12.73,-46.07,-45.95,0,*6F
1520092831.38,50402,10.38,71218.8,-12.73,-46.07,-46.49,0,*6E
1520092832.6,50403,10.38,71198.5,-12.77,-46.35,-46.21,0,*64
1520092833.86,50404,10.38,71208.0,-12.75,-45.73,-45.95,0,*6C
1520092835.1,50405,10.38,71152.5,-12.75,-46.35,-46.35,0,*65
1520092836.4,50406,10.38,71188.8,-12.75,-46.49,-46.49,0,*66
1520092837.7,50407,10.38,71180.5,-12.75,-46.27,-46.15,0,*66
1520092838.99,50408,10.38,71188.3,-12.75,-46.07,-46.27,0,*6A
1520092840.29,50409,10.38,71190.8,-12.75,-46.15,-46.27,0,*68
1520092841.56,50410,10.38,71192.3,-12.73,-46.15,-46.15,0,*67
1520092842.77,50411,10.38,71194.0,-12.73,-45.95,-45.87,0,*65
1520092844.04,50412,10.38,71204.3,-12.73,-46.15,-46.15,0,*65
1520092845.25,50413,10.38,71200.8,-12.73,-45.67,-45.61,0,*62
1520092846.46,50414,10.38,71188.8,-12.73,-45.67,-45.67,0,*63
1520092847.69,50415,10.38,71208.8,-12.73,-45.67,-45.73,0,*67
1520092848.9,50416,10.38,71220.5,-12.69,-45.61,-45.67,0,*6C
1520092850.12,50417,10.38,71208.5,-12.73,-46.35,-46.35,0,*60
1520092851.39,50418,10.38,71202.8,-12.73,-46.49,-46.49,0,*6F
1520092852.63,50419,10.38,71190.3,-12.73,-46.49,-46.35,0,*65
1520092853.9,50420,10.38,71200.8,-12.69,-46.41,-46.27,0,*6F
1520092855.14,50421,10.38,71206.5,-12.73,-46.55,-46.49,0,*68
1520092856.38,50422,10.38,71206.8,-12.73,-46.55,-46.49,0,*6B
1520092857.62,50423,10.38,71202.8,-12.73,-46.49,-46.35,0,*6C
1520092858.85,50424,10.38,71200.3,-12.73,-45.73,-45.67,0,*65
1520092860.07,50425,10.38,71184.0,-12.73,-45.21,-45.21,0,*61
1520092861.3,50426,10.38,71192.3,-12.69,-45.81,-45.67,0,*61
1520092862.51,50427,10.38,71202.5,-12.69,-45.67,-45.87,0,*66
1520092863.78,50428,10.38,71178.0,-12.69,-46.27,-46.27,0,*67
1520092865.0,50429,10.38,71170.8,-12.73,-46.55,-46.35,0,*6B
1520092866.24,50430,10.38,71174.3,-12.69,-46.07,-46.21,0,*6A
1520092867.48,50431,10.38,71166.0,-12.69,-46.21,-46.07,0,*6B
1520092868.76,50432,10.38,71168.5,-12.69,-46.27,-46.27,0,*6C
1520092869.97,50433,10.38,71192.3,-12.73,-46.55,-46.35,0,*60
1520092871.21,50434,10.38,71184.0,-12.73,-46.55,-46.69,0,*6E
1520092872.48,50435,10.38,71198.3,-12.69,-46.69,-46.49,0,*69
1520092873.69,50436,10.38,71208.3,-12.73,-46.55,-46.55,0,*63
1520092874.96,50437,10.38,71192.3,-12.73,-46.15,-46.27,0,*63
1520092876.17,50438,10.38,71186.8,-12.73,-46.55,-46.55,0,*6D
1520092877.42,50439,10.38,71192.0,-12.75,-46.35,-46.35,0,*6A
1520092878.72,50440,10.38,71214.0,-12.75,-46.49,-46.49,0,*64
1520092879.99,50441,10.38,71196.8,-12.75,-46.15,-46.35,0,*67
1520092881.25,50442,10.38,71196.3,-12.73,-46.27,-46.27,0,*60
1520092882.53,50443,10.38,71202.0,-12.73,-46.15,-46.15,0,*61
1520092883.76,50444,10.38,71210.8,-12.73,-46.07,-45.87,0,*6D
1520092885.02,50445,10.38,71206.5,-12.75,-45.73,-45.87,0,*6A
1520092886.26,50446,10.38,71204.3,-12.75,-45.67,-45.87,0,*6C
1520092887.47,50447,10.38,71200.0,-12.69,-45.41,-45.53,0,*6D
1520092888.68,50448,10.38,71198.0,-12.73,-45.67,-45.61,0,*6C
1520092889.89,50449,10.38,71204.0,-12.69,-45.67,-45.67,0,*60
1520092891.11,50450,10.38,71178.3,-12.69,-45.67,-45.61,0,*6E
1520092892.35,50451,10.31,71160.0,-12.73,-46.01,-46.07,0,*64
1520092893.6,50452,10.31,71184.5,-12.73,-46.35,-46.27,0,*62
1520092894.86,50453,10.38,71188.5,-12.73,-46.49,-46.27,0,*68
1520092896.1,50454,10.38,71194.3,-12.73,-46.69,-46.55,0,*68
1520092897.37,50455,10.38,71192.0,-12.69,-46.41,-46.49,0,*65
1520092898.63,50456,10.38,71188.0,-12.73,-46.69,-46.49,0,*67
1520092899.9,50457,10.38,71198.8,-12.73,-46.49,-46.49,0,*64
1520092901.17,50458,10.38,71176.8,-12.73,-46.49,-46.49,0,*6B
1520092902.41,50459,10.38,71172.8,-12.73,-46.55,-46.49,0,*67
1520092903.63,50460,10.38,71178.5,-12.73,-46.55,-46.35,0,*66
1520092904.9,50461,10.38,71166.8,-12.73,-46.49,-46.49,0,*61
1520092906.14,50462,10.38,71162.8,-12.73,-46.55,-46.49,0,*6F
1520092907.35,50463,10.38,71174.0,-12.73,-46.55,-46.35,0,*65
1520092908.56,50464,10.38,71162.5,-12.69,-45.87,-45.87,0,*6F
1520092909.82,50465,10.38,71170.5,-12.73,-45.73,-45.73,0,*65
1520092911.06,50466,10.38,71174.8,-12.69,-45.61,-45.47,0,*69
1520092912.29,50467,10.38,71174.0,-12.69,-45.87,-45.81,0,*6A
1520092913.56,50468,10.38,71176.8,-12.73,-46.07,-46.27,0,*6A
1520092914.83,50469,10.31,71178.8,-12.69,-46.07,-46.07,0,*62
1520092916.04,50470,10.31,71182.3,-12.73,-45.95,-45.95,0,*61
1520092917.25,50471,10.31,71188.8,-12.73,-45.67,-45.61,0,*66
1520092918.46,50472,10.38,71202.3,-12.73,-45.61,-45.67,0,*65
1520092919.67,50473,10.38,71196.8,-12.69,-45.67,-45.61,0,*6F
1520092920.88,50474,10.38,71186.3,-12.69,-45.41,-45.33,0,*6B
1520092922.1,50475,10.31,71170.3,-12.69,-45.61,-45.53,0,*6E
1520092923.35,50476,10.38,71180.5,-12.69,-46.01,-45.81,0,*67
1520092924.58,50477,10.38,71174.8,-12.67,-46.01,-46.01,0,*63
1520092925.84,50478,10.38,71170.3,-12.67,-46.41,-46.27,0,*6C
1520092927.11,50479,10.38,71180.0,-12.67,-46.41,-46.41,0,*6D
1520092928.38,50480,10.38,71176.5,-12.69,-46.49,-46.41,0,*6D
1520092929.65,50481,10.38,71198.3,-12.69,-46.49,-46.41,0,*6C
1520092930.92,50482,10.31,71190.5,-12.69,-46.49,-46.27,0,*6F
1520092932.19,50483,10.38,71198.8,-12.73,-46.49,-46.27,0,*65
1520092933.4,50484,10.38,71192.5,-12.73,-46.21,-46.21,0,*6A
1520092934.61,50485,10.38,71192.5,-12.69,-46.21,-46.21,0,*60
1520092935.86,50486,10.38,71168.0,-12.69,-46.21,-46.27,0,*65
1520092937.13,50487,10.31,71176.5,-12.69,-46.27,-46.41,0,*62
1520092938.37,50488,10.38,71158.3,-12.73,-46.55,-46.49,0,*6B
1520092939.61,50489,10.38,71166.3,-12.73,-46.49,-46.55,0,*6A
1520092940.82,50490,10.38,71166.8,-12.73,-46.55,-46.55,0,*6F
1520092942.08,50491,10.31,71162.0,-12.73,-46.69,-46.69,0,*6E
1520092943.34,50492,10.38,71170.3,-12.73,-46.69,-46.69,0,*6D
1520092944.6,50493,10.38,71172.8,-12.73,-46.69,-46.69,0,*6C
1520092945.84,50494,10.31,71168.8,-12.73,-46.69,-46.55,0,*64
1520092947.11,50495,10.31,71170.0,-12.75,-46.49,-46.35,0,*67
1520092948.41,50496,10.38,71178.5,-12.75,-46.15,-46.15,0,*6F
1520092949.67,50497,10.31,71180.5,-12.75,-46.07,-45.95,0,*66
1520092950.94,50498,10.38,71184.3,-12.73,-46.15,-46.07,0,*64
1520092952.21,50499,10.31,71186.8,-12.73,-46.15,-46.15,0,*66
1520092953.42,50500,10.38,71200.0,-12.73,-45.87,-45.87,0,*67
1520092954.68,50501,10.38,71204.8,-12.73,-45.73,-45.73,0,*66
1520092955.9,50502,10.31,71194.0,-12.73,-45.73,-45.67,0,*60
1520092957.13,50503,10.31,71190.0,-12.73,-45.87,-45.73,0,*6F
1520092958.38,50504,10.38,71176.3,-12.73,-45.73,-45.73,0,*63
1520092959.65,50505,10.38,71168.3,-12.73,-46.07,-46.07,0,*62
1520092960.9,50506,10.38,71162.5,-12.73,-46.35,-46.27,0,*62
1520092962.17,50507,10.38,71168.8,-12.73,-46.15,-46.07,0,*63
1520092963.44,50508,10.31,71156.0,-12.73,-46.15,-46.27,0,*6E
1520092964.7,50509,10.31,71156.3,-12.69,-46.41,-46.27,0,*65
1520092965.92,50510,10.31,71170.3,-12.73,-46.35,-46.35,0,*66
1520092967.16,50511,10.38,71176.8,-12.73,-46.69,-46.55,0,*68
1520092968.39,50512,10.31,71178.8,-12.73,-46.75,-46.69,0,*69
1520092969.65,50513,10.38,71188.8,-12.73,-46.69,-46.69,0,*65
1520092970.89,50514,10.38,71184.3,-12.77,-46.75,-46.69,0,*6B
1520092972.1,50515,10.38,71178.5,-12.77,-46.83,-46.97,0,*62
1520092973.34,50516,10.31,71182.3,-12.73,-46.49,-46.35,0,*6B
1520092974.61,50517,10.31,71190.0,-12.73,-46.69,-46.49,0,*63
1520092975.88,50518,10.38,71198.5,-12.75,-46.49,-46.35,0,*63
1520092977.18,50519,10.38,71194.5,-12.75,-46.15,-46.07,0,*6A
1520092978.41,50520,10.31,71184.3,-12.77,-46.41,-46.35,0,*62
1520092979.67,50521,10.31,71192.8,-12.75,-46.75,-46.69,0,*6F
1520092980.89,50522,10.31,71188.5,-12.77,-46.83,-46.75,0,*6A
1520092982.15,50523,10.31,71200.5,-12.75,-46.75,-46.69,0,*6D
1520092983.37,50524,10.38,71186.3,-12.77,-46.83,-46.83,0,*65
1520092984.59,50525,10.38,71186.0,-12.77,-46.83,-46.75,0,*6D
1520092985.81,50526,10.38,71186.8,-12.77,-46.97,-46.75,0,*6B
1520092987.05,50527,10.38,71184.8,-12.77,-46.55,-46.41,0,*63
1520092988.3,50528,10.31,71186.5,-12.77,-46.15,-46.01,0,*6C
1520092989.52,50529,10.31,71190.0,-12.77,-46.21,-46.01,0,*6A
1520092990.74,50530,10.38,71192.3,-12.77,-46.01,-45.95,0,*6E
1520092991.95,50531,10.38,71192.3,-12.77,-45.67,-45.53,0,*66
1520092993.2,50532,10.31,71196.5,-12.75,-45.73,-45.67,0,*65
1520092994.44,50533,10.38,71200.0,-12.75,-45.67,-45.61,0,*67
1520092995.7,50534,10.38,71204.3,-12.75,-45.61,-45.27,0,*64
1520092996.96,50535,10.38,71204.3,-12.75,-45.41,-45.27,0,*67
1520092998.22,50536,10.38,71212.5,-12.75,-45.61,-45.47,0,*60
1520092999.49,50537,10.31,71208.3,-12.75,-45.61,-45.27,0,*67
1520093000.72,50538,10.38,71204.8,-12.75,-45.41,-45.41,0,*6A
1520093001.96,50539,10.38,71202.3,-12.73,-45.21,-45.07,0,*69
1520093003.17,50540,10.31,71196.0,-12.69,-44.99,-44.79,0,*66
1520093004.39,50541,10.31,71192.8,-12.69,-45.21,-44.99,0,*6B
1520093005.6,50542,10.31,71186.0,-12.73,-45.61,-45.41,0,*63
1520093006.82,50543,10.31,71188.5,-12.67,-45.67,-45.67,0,*65
1520093008.03,50544,10.31,71202.3,-12.69,-45.61,-45.33,0,*6B
1520093009.27,50545,10.31,71210.8,-12.67,-46.41,-46.21,0,*65
1520093010.51,50546,10.31,71154.8,-12.67,-46.41,-46.21,0,*66
1520093011.78,50547,10.38,71096.8,-12.69,-46.89,-46.89,0,*6F
1520093013.03,50548,10.31,71152.3,-12.69,-46.89,-46.83,0,*6A
1520093014.28,50549,10.38,71188.5,-12.69,-46.75,-46.49,0,*6E
1520093015.51,50550,10.31,71182.3,-12.73,-46.07,-45.95,0,*6A
1520093016.78,50551,10.31,71168.5,-12.69,-46.61,-46.41,0,*6A
1520093018.02,50552,10.31,71168.3,-12.69,-46.41,-46.21,0,*6D
1520093019.26,50553,10.31,71144.3,-12.69,-46.49,-46.21,0,*64
1520093020.47,50554,10.38,71150.5,-12.73,-46.75,-46.55,0,*64
1520093021.74,50555,10.38,71178.8,-12.69,-46.61,-46.27,0,*6E
1520093023.0,50556,10.31,71168.8,-12.69,-46.69,-46.61,0,*67
1520093024.24,50557,10.31,71180.5,-12.73,-46.69,-46.55,0,*6A
1520093025.5,50558,10.31,71184.0,-12.73,-46.69,-46.49,0,*68
1520093026.77,50559,10.31,71190.8,-12.77,-46.49,-46.27,0,*67
1520093028.01,50560,10.31,71196.5,-12.75,-45.67,-45.61,0,*61
1520093029.25,50561,10.31,71176.3,-12.75,-45.67,-45.61,0,*60
1520093030.5,50562,10.31,71172.8,-12.73,-45.73,-45.73,0,*63
1520093031.72,50563,10.38,71152.8,-12.69,-46.01,-45.67,0,*6A
1520093032.96,50564,10.38,71146.5,-12.73,-46.07,-45.95,0,*6D
1520093034.2,50565,10.31,71148.8,-12.73,-46.35,-46.07,0,*65
1520093035.41,50566,10.38,71164.8,-12.73,-46.21,-45.87,0,*68
1520093036.66,50567,10.31,71172.0,-12.69,-46.35,-46.27,0,*6E
1520093037.9,50568,10.31,71144.8,-12.69,-46.21,-46.07,0,*66
1520093039.13,50569,10.31,71174.0,-12.69,-46.01,-46.01,0,*63
1520093040.4,50570,10.31,71204.0,-12.73,-46.15,-46.07,0,*63
1520093041.62,50571,10.38,71204.5,-12.73,-46.35,-46.35,0,*61
1520093042.85,50572,10.31,71180.0,-12.67,-46.01,-46.01,0,*67
1520093044.09,50573,10.38,71180.3,-12.73,-46.35,-46.07,0,*62
1520093045.34,50574,10.31,71186.5,-12.69,-46.21,-46.15,0,*68
1520093046.58,50575,10.31,71188.8,-12.73,-46.35,-46.27,0,*66
1520093047.85,50576,10.31,71192.3,-12.73,-46.49,-46.27,0,*6E
1520093049.09,50577,10.31,71208.0,-12.73,-46.69,-46.35,0,*6E
1520093050.35,50578,10.31,71220.3,-12.75,-46.69,-46.35,0,*67
1520093051.58,50579,10.31,71212.8,-12.73,-45.73,-45.61,0,*6A
1520093052.79,50580,10.38,71196.5,-12.73,-45.67,-45.61,0,*69
1520093054.0,50581,10.31,71184.5,-12.73,-45.95,-45.67,0,*63
1520093055.24,50582,10.31,71180.0,-12.73,-46.07,-45.67,0,*68
1520093056.5,50583,10.38,71194.0,-12.73,-45.47,-45.27,0,*6A
1520093057.71,50584,10.31,71196.8,-12.73,-45.67,-45.87,0,*65
1520093058.97,50585,10.31,71210.5,-12.73,-46.07,-46.27,0,*68
1520093060.22,50586,10.31,71212.8,-12.73,-46.35,-46.07,0,*68
1520093061.43,50587,10.31,71210.8,-12.69,-46.21,-45.87,0,*6C
1520093062.68,50588,10.31,71206.8,-12.73,-45.73,-45.47,0,*60
1520093063.89,50589,10.31,71210.5,-12.69,-45.87,-45.67,0,*63
1520093065.12,50590,10.31,71202.3,-12.73,-45.73,-45.67,0,*6B
1520093066.36,50591,10.31,71194.0,-12.73,-46.15,-45.87,0,*67
1520093067.58,50592,10.31,71192.8,-12.69,-46.21,-46.01,0,*65
1520093068.8,50593,10.31,71210.3,-12.69,-45.53,-45.21,0,*63
1520093070.04,50594,10.31,71184.0,-12.73,-46.69,-46.35,0,*63
1520093071.26,50595,10.31,71172.8,-12.73,-46.97,-46.75,0,*67
1520093072.5,50596,10.31,71160.0,-12.73,-46.97,-46.69,0,*69
1520093073.77,50597,10.31,71150.8,-12.73,-46.89,-46.69,0,*67
1520093074.98,50598,10.31,71148.5,-12.73,-46.97,-46.55,0,*68
1520093076.2,50599,10.31,71170.0,-12.69,-46.75,-46.35,0,*68
1520093077.44,50600,10.31,71178.0,-12.73,-46.75,-46.15,0,*62
1520093078.74,50601,10.31,71184.0,-12.75,-46.27,-46.07,0,*61
1520093079.97,50602,10.31,71190.5,-12.77,-46.41,-46.35,0,*61
1520093081.24,50603,10.31,71190.0,-12.75,-46.55,-46.49,0,*6C
1520093082.54,50604,10.31,71194.5,-12.75,-46.69,-46.49,0,*64
1520093083.75,50605,10.31,71194.3,-12.77,-46.75,-46.21,0,*64
1520093085.01,50606,10.31,71200.3,-12.75,-45.61,-45.47,0,*60
1520093086.28,50607,10.31,71190.5,-12.75,-45.95,-46.15,0,*6E
1520093087.49,50608,10.31,71192.0,-12.77,-46.55,-46.75,0,*6A
1520093088.75,50609,10.31,71190.5,-12.77,-47.23,-47.03,0,*6B
1520093090.01,50610,10.31,71190.5,-12.79,-47.09,-47.03,0,*65
1520093091.28,50611,10.31,71188.3,-12.79,-47.23,-46.97,0,*60
1520093092.53,50612,10.31,71176.3,-12.79,-47.09,-46.75,0,*67
1520093093.79,50613,10.31,71176.0,-12.79,-46.75,-46.41,0,*6B
1520093095.08,50614,10.31,71180.0,-12.79,-46.61,-46.41,0,*69
1520093096.31,50615,10.31,71190.5,-12.81,-46.35,-46.21,0,*68
1520093097.57,50616,10.31,71192.0,-12.79,-45.73,-45.53,0,*6B
1520093098.82,50617,10.31,71190.3,-12.77,-45.47,-45.07,0,*62
1520093100.04,50618,10.38,71190.5,-12.77,-45.13,-44.87,0,*65
1520093101.33,50619,10.31,71190.8,-12.75,-44.47,-44.21,0,*6A
1520093102.57,50620,10.38,71196.3,-12.75,-44.99,-44.79,0,*6E
1520093103.83,50621,10.31,71188.3,-12.75,-45.61,-45.27,0,*63
1520093105.06,50622,10.31,71188.0,-12.73,-45.73,-45.67,0,*61
1520093106.27,50623,10.31,71186.3,-12.73,-45.87,-45.61,0,*6D
1520093107.48,50624,10.31,71190.8,-12.69,-45.61,-45.33,0,*6E
1520093108.69,50625,10.31,71190.5,-12.69,-45.41,-45.13,0,*6F
1520093109.9,50626,10.31,71188.3,-12.73,-45.61,-45.21,0,*64
1520093111.11,50627,10.31,71180.0,-12.69,-45.67,-45.41,0,*6E
1520093112.33,50628,10.31,71174.3,-12.69,-46.01,-45.67,0,*66
1520093113.54,50629,10.31,71180.8,-12.73,-46.75,-46.35,0,*6B
1520093114.81,50630,10.31,71176.8,-12.69,-46.89,-46.61,0,*6A
1520093116.04,50631,10.31,71166.0,-12.73,-47.03,-46.97,0,*6A
1520093117.3,50632,10.31,71130.8,-12.73,-47.37,-47.03,0,*62
1520093118.57,50633,10.31,71134.5,-12.73,-47.03,-46.89,0,*67
1520093119.83,50634,10.31,71150.0,-12.73,-46.89,-46.69,0,*6D
1520093121.13,50635,10.31,71156.8,-12.75,-46.89,-46.49,0,*68
1520093122.4,50636,10.31,71158.8,-12.75,-46.75,-46.49,0,*68
1520093123.63,50637,10.31,71158.8,-12.77,-46.75,-46.41,0,*63
1520093124.85,50638,10.31,71138.3,-12.77,-46.83,-46.55,0,*60
1520093126.12,50639,10.31,71156.0,-12.75,-46.89,-46.35,0,*6F
1520093127.39,50640,10.31,71142.8,-12.75,-46.69,-46.35,0,*6F
1520093128.66,50641,10.31,71166.5,-12.75,-46.55,-46.15,0,*63
1520093129.92,50642,10.31,71156.0,-12.75,-46.69,-46.35,0,*6D
1520093131.22,50643,10.31,71168.0,-12.75,-46.69,-46.49,0,*67
1520093132.48,50644,10.31,71154.0,-12.75,-46.69,-46.35,0,*6B
1520093133.7,50645,10.31,71150.5,-12.77,-46.83,-46.55,0,*6A
1520093134.92,50646,10.31,71162.0,-12.77,-46.97,-46.55,0,*6C
1520093136.17,50647,10.31,71156.8,-12.77,-46.83,-46.41,0,*6D
1520093137.41,50648,10.31,71136.8,-12.77,-46.83,-46.41,0,*62
1520093138.63,50649,10.31,71158.5,-12.77,-46.83,-46.55,0,*66
1520093139.87,50650,10.31,71178.0,-12.77,-46.83,-46.41,0,*6B
1520093141.09,50651,10.31,71180.0,-12.77,-46.55,-46.35,0,*62
1520093142.3,50652,10.31,71176.0,-12.77,-46.35,-45.67,0,*63
1520093143.52,50653,10.31,71188.3,-12.77,-46.01,-46.01,0,*66
1520093144.82,50654,10.31,71160.5,-12.79,-46.15,-45.73,0,*6C
1520093146.08,50655,10.31,71176.3,-12.79,-46.21,-45.81,0,*67
1520093147.36,50656,10.31,71174.3,-12.81,-46.15,-46.15,0,*6A
1520093148.62,50657,10.31,71156.5,-12.79,-45.73,-45.53,0,*6E
1520093149.89,50658,10.31,71130.3,-12.79,-45.81,-45.53,0,*6C
1520093151.16,50659,10.31,71210.3,-12.79,-46.01,-45.81,0,*69
1520093152.41,50660,10.31,71176.3,-12.77,-45.73,-45.27,0,*67
1520093153.7,50661,10.31,71156.3,-12.75,-45.47,-45.07,0,*61
1520093154.96,50662,10.31,71150.3,-12.75,-45.47,-45.21,0,*66
1520093156.19,50663,10.31,71154.5,-12.75,-45.95,-45.67,0,*6A
1520093157.49,50664,10.31,71130.5,-12.75,-46.15,-45.73,0,*63
1520093158.74,50665,10.31,71170.5,-12.75,-45.87,-45.47,0,*6D
1520093159.98,50666,10.31,71168.8,-12.75,-45.87,-45.61,0,*6A
1520093161.21,50667,10.31,71170.5,-12.75,-45.67,-45.41,0,*67
1520093162.47,50668,10.31,71170.0,-12.75,-45.73,-45.61,0,*6F
1520093163.71,50669,10.31,71172.5,-12.73,-45.67,-45.47,0,*69
1520093164.98,50670,10.31,71144.0,-12.73,-46.15,-46.07,0,*60
1520093166.25,50671,10.31,71152.0,-12.75,-46.15,-45.87,0,*6C
1520093167.5,50672,10.31,71154.0,-12.75,-45.95,-45.73,0,*6F
1520093168.77,50673,10.31,71162.8,-12.75,-46.07,-45.87,0,*6D
1520093170.03,50674,10.31,71164.8,-12.75,-45.87,-45.73,0,*6A
1520093171.29,50675,10.31,71164.5,-12.75,-45.95,-45.73,0,*68
1520093172.53,50676,10.31,71170.3,-12.73,-46.15,-45.87,0,*6D
1520093173.77,50677,10.31,71182.8,-12.73,-46.15,-45.95,0,*6F
1520093175.0,50678,10.31,71184.3,-12.73,-46.07,-45.67,0,*6E
1520093176.24,50679,10.31,71190.5,-12.69,-45.73,-45.33,0,*65
1520093177.45,50680,10.31,71188.3,-12.73,-45.61,-45.21,0,*68
1520093178.67,50681,10.31,71188.0,-12.69,-45.53,-45.21,0,*63
1520093179.88,50682,10.31,71198.0,-12.73,-45.95,-45.61,0,*65
1520093181.12,50683,10.31,71186.8,-12.73,-46.27,-45.87,0,*66
1520093182.38,50684,10.31,71182.0,-12.73,-46.07,-45.73,0,*68
1520093183.63,50685,10.31,71194.3,-12.73,-46.15,-45.87,0,*61
1520093184.86,50686,10.31,71190.8,-12.73,-46.07,-45.67,0,*6F
1520093186.1,50687,10.31,71176.5,-12.73,-46.15,-45.95,0,*60
1520093187.35,50688,10.31,71176.8,-12.69,-46.07,-46.01,0,*69
1520093188.59,50689,10.31,71182.8,-12.73,-46.35,-46.07,0,*64
1520093189.82,50690,10.31,71180.5,-12.69,-46.21,-46.01,0,*64
1520093191.06,50691,10.31,71198.5,-12.69,-46.27,-45.87,0,*6E
1520093192.28,50692,10.31,71188.5,-12.69,-46.01,-45.87,0,*69
1520093193.52,50693,10.31,71186.5,-12.69,-46.07,-45.87,0,*6E
1520093194.76,50694,10.31,71190.0,-12.69,-45.81,-45.53,0,*6D
1520093195.97,50695,10.31,71188.3,-12.69,-45.61,-45.21,0,*67
1520093197.18,50696,10.31,71196.3,-12.67,-45.41,-45.13,0,*69
1520093198.46,50697,10.31,71188.3,-12.67,-45.27,-44.93,0,*61
1520093199.7,50698,10.31,71196.3,-12.67,-45.33,-44.93,0,*6B
1520093200.95,50699,10.31,71208.5,-12.67,-45.53,-45.27,0,*62
1520093202.18,50700,10.31,71180.5,-12.67,-45.53,-45.21,0,*65
1520093203.39,50701,10.31,71170.8,-12.67,-45.67,-45.61,0,*67
1520093204.65,50702,10.31,71168.0,-12.67,-46.55,-46.15,0,*66
1520093205.89,50703,10.31,71148.5,-12.67,-46.61,-46.35,0,*62
1520093207.12,50704,10.31,71116.5,-12.67,-46.35,-46.01,0,*63
1520093208.37,50705,10.31,71146.3,-12.67,-46.55,-46.27,0,*60
1520093209.62,50706,10.31,71138.0,-12.67,-46.61,-46.35,0,*67
1520093210.89,50707,10.31,71158.5,-12.67,-46.61,-46.27,0,*65
1520093212.11,50708,10.31,71160.8,-12.67,-46.83,-46.35,0,*65
1520093213.34,50709,10.31,71190.5,-12.67,-46.55,-46.35,0,*6F
1520093214.61,50710,10.31,71198.5,-12.67,-46.61,-46.41,0,*63
1520093215.88,50711,10.31,71214.3,-12.67,-46.61,-46.27,0,*62
1520093217.16,50712,10.31,71204.5,-12.67,-46.27,-46.07,0,*61
1520093218.4,50713,10.31,71170.8,-12.67,-46.01,-45.81,0,*69
1520093219.65,50714,10.31,71136.0,-12.67,-46.49,-46.21,0,*6B
1520093220.89,50715,10.31,71152.8,-12.69,-46.41,-46.21,0,*6C
1520093222.15,50716,10.31,71170.8,-12.69,-46.69,-46.41,0,*63
1520093223.37,50717,10.31,71198.3,-12.73,-46.97,-46.55,0,*6D
1520093224.64,50718,10.31,71184.3,-12.69,-46.61,-46.41,0,*65
1520093225.91,50719,10.31,71200.0,-12.69,-46.61,-46.27,0,*64
1520093227.17,50720,10.31,71198.3,-12.69,-46.41,-46.27,0,*6C
1520093228.42,50721,10.31,71182.5,-12.69,-46.27,-46.21,0,*6B
1520093229.66,50722,10.31,71176.0,-12.69,-46.49,-46.21,0,*60
1520093230.93,50723,10.31,71188.5,-12.73,-46.49,-46.15,0,*6D
1520093232.18,50724,10.31,71156.5,-12.69,-46.49,-46.21,0,*66
1520093233.42,50725,10.31,71140.8,-12.73,-46.55,-46.27,0,*67
1520093234.69,50726,10.31,71162.0,-12.69,-46.49,-46.27,0,*62
1520093235.93,50727,10.31,71200.0,-12.69,-46.41,-46.21,0,*6D
1520093237.17,50728,10.31,71196.5,-12.69,-46.27,-46.21,0,*62
1520093238.42,50729,10.31,71182.8,-12.73,-46.35,-46.15,0,*6C
1520093239.68,50730,10.31,71184.5,-12.73,-46.49,-46.27,0,*6E
1520093240.93,50731,10.31,71194.5,-12.69,-46.49,-46.21,0,*62
1520093242.17,50732,10.31,71192.8,-12.73,-46.49,-46.35,0,*6F
1520093243.41,50733,10.31,71192.0,-12.73,-46.55,-46.27,0,*60
1520093244.66,50734,10.31,71202.5,-12.73,-46.35,-46.15,0,*60
1520093245.88,50735,10.31,71200.3,-12.69,-46.01,-45.87,0,*65
1520093247.12,50736,10.31,71210.0,-12.69,-46.21,-46.07,0,*6F
1520093248.34,50737,10.31,71208.3,-12.69,-46.01,-46.01,0,*6A
1520093249.57,50738,10.31,71210.5,-12.73,-45.73,-45.67,0,*6B
1520093250.81,50739,10.31,71200.8,-12.69,-45.61,-45.27,0,*66
1520093252.02,50740,10.31,71206.3,-12.69,-45.13,-45.13,0,*6A
1520093253.24,50741,10.31,71202.5,-12.69,-44.99,-44.79,0,*65
1520093254.48,50742,10.31,71218.8,-12.67,-45.13,-44.73,0,*61
1520093255.73,50743,10.31,71220.8,-12.67,-44.93,-44.99,0,*6D
1520093257.0,50744,10.31,71226.8,-12.67,-44.93,-44.73,0,*6E
1520093258.24,50745,10.31,71208.0,-12.67,-45.53,-45.47,0,*64
1520093259.47,50746,10.31,71192.5,-12.67,-46.01,-45.95,0,*6C
1520093260.72,50747,10.31,71184.3,-12.67,-46.15,-46.01,0,*66
1520093261.98,50748,10.31,71156.0,-12.67,-46.35,-46.15,0,*6E
1520093263.23,50749,10.31,71142.8,-12.67,-46.83,-46.41,0,*63
1520093264.5,50750,10.31,71166.5,-12.65,-46.55,-46.41,0,*62
1520093265.76,50751,10.31,71168.0,-12.67,-46.61,-46.41,0,*66
1520093267.01,50752,10.31,71174.8,-12.67,-46.55,-46.41,0,*62
1520093268.26,50753,10.31,71182.5,-12.67,-46.55,-46.41,0,*63
1520093269.53,50754,10.31,71162.8,-12.67,-46.49,-46.27,0,*69
1520093270.75,50755,10.31,71164.3,-12.67,-46.55,-46.35,0,*66
1520093272.02,50756,10.31,71166.5,-12.67,-46.49,-46.41,0,*6B
1520093273.3,50757,10.31,71162.0,-12.67,-46.69,-46.49,0,*60
1520093274.57,50758,10.31,71186.0,-12.67,-46.89,-46.69,0,*63
1520093275.82,50759,10.31,71190.8,-12.67,-46.83,-46.49,0,*6A
1520093277.09,50760,10.31,71182.5,-12.67,-46.61,-46.41,0,*64
1520093278.36,50761,10.31,71184.5,-12.67,-46.61,-46.41,0,*65
1520093279.59,50762,10.31,71204.0,-12.67,-46.21,-46.01,0,*66
1520093280.81,50763,10.31,71192.5,-12.69,-45.53,-45.41,0,*68
1520093282.03,50764,10.31,71174.3,-12.73,-45.73,-45.67,0,*62
1520093283.26,50765,10.31,71182.8,-12.67,-45.61,-45.53,0,*62
1520093284.53,50766,10.31,71174.3,-12.67,-46.61,-46.49,0,*6A
1520093285.77,50767,10.31,71168.8,-12.67,-46.41,-46.21,0,*67
1520093287.01,50768,10.31,71144.0,-12.67,-46.41,-46.35,0,*6D
1520093288.26,50769,10.31,71132.5,-12.67,-46.21,-46.27,0,*69
1520093289.51,50770,10.31,71142.3,-12.67,-46.01,-46.07,0,*61